Logan, UT

3:09 PM MST on November 13, 2019 (GMT -0700)
Logan-Cache

Weather History for KLGU - August, 2019

Change the Weather History Date:

Saturday, August 24, 2019

  Actual Average Record
Temperature  
Mean Temperature 68 °F -  
Max Temperature 89 °F 87 °F 97 °F (1969)
Min Temperature 48 °F 50 °F 37 °F (1992)
Cooling Degree Days 4    
Growing Degree Days 18 (Base 50)    
Moisture  
Dew Point 39 °F    
Average Humidity 41    
Maximum Humidity 77    
Minimum Humidity 14    
Precipitation  
Precipitation 0.00 in - - ()
Sea Level Pressure  
Sea Level Pressure 29.89 in    
Wind  
Wind Speed 3 mph ()    
Max Wind Speed 13 mph    
Max Gust Speed -    
Visibility 10.0 miles    
Events      
Averages and records for this station are not official NWS values.
T = Trace of Precipitation, MM = Missing Value Source: Averaged Metar Reports

Daily Weather History Graph

Daily Weather History Graph

Search for Another Location

Airport or City:

Astronomy

Aug. 24, 2019 Rise Set
Actual Time 6:44 AM MDT 8:13 PM MDT
Civil Twilight 6:15 AM MDT 8:43 PM MDT
Nautical Twilight 5:40 AM MDT 9:18 PM MDT
Astronomical Twilight 5:02 AM MDT 9:55 PM MDT
Moon 12:38 AM MDT (8/24) 3:36 PM MDT (8/24)
Length of Visible Light 14h 27m
Length of Day
13h 29m
Last Quarter, 38% of the Moon is Illuminated
Aug 24
Last Quarter
Aug 30
New
Sep 5
First Quarter
Sep 13
Full
Sep 21
Last Quarter

Hourly Weather History & Observations

Time (MDT) Temp. Dew Point Humidity Pressure Visibility Wind Dir Wind Speed Gust Speed Precip Events Conditions
12:51 AM 52.0 °F 41.0 °F 66% 29.91 in 10.0 mi West 4.6 mph - N/A   Clear
1:51 AM 55.9 °F 39.9 °F 55% 29.90 in 10.0 mi Calm Calm - N/A   Clear
2:51 AM 50.0 °F 39.9 °F 68% 29.90 in 10.0 mi Calm Calm - N/A   Clear
3:51 AM 53.1 °F 39.9 °F 61% 29.90 in 10.0 mi Calm Calm - N/A   Clear
4:51 AM 50.0 °F 42.1 °F 74% 29.90 in 10.0 mi ENE 3.5 mph - N/A   Clear
5:51 AM 51.1 °F 41.0 °F 68% 29.91 in 10.0 mi Calm Calm - N/A   Clear
6:51 AM 48.0 °F 41.0 °F 77% 29.94 in 10.0 mi West 3.5 mph - N/A   Clear
7:51 AM 48.9 °F 41.0 °F 74% 29.95 in 10.0 mi NNW 3.5 mph - N/A   Clear
8:51 AM 57.9 °F 41.0 °F 53% 29.95 in 10.0 mi NNW 3.5 mph - N/A   Clear
9:51 AM 64.0 °F 39.9 °F 41% 29.96 in 10.0 mi NNW 4.6 mph - N/A   Clear
10:51 AM 70.0 °F 39.0 °F 32% 29.96 in 10.0 mi Calm Calm - N/A   Clear
11:51 AM 75.9 °F 39.0 °F 26% 29.93 in 10.0 mi Calm Calm - N/A   Clear
12:51 PM 81.0 °F 39.9 °F 23% 29.92 in 10.0 mi Variable 3.5 mph - N/A   Clear
1:51 PM 84.0 °F 36.0 °F 18% 29.90 in 10.0 mi SSE 4.6 mph - N/A   Clear
2:51 PM 86.0 °F 35.1 °F 16% 29.90 in 10.0 mi Variable 3.5 mph - N/A   Clear
3:51 PM 87.1 °F 35.1 °F 16% 29.86 in 10.0 mi South 9.2 mph - N/A   Clear
4:51 PM 89.1 °F 35.1 °F 15% 29.85 in 10.0 mi SSW 12.7 mph - N/A   Clear
5:51 PM 89.1 °F 33.1 °F 14% 29.84 in 10.0 mi South 12.7 mph - N/A   Clear
6:51 PM 87.1 °F 33.1 °F 15% 29.84 in 10.0 mi South 11.5 mph - N/A   Clear
7:51 PM 82.9 °F 36.0 °F 19% 29.83 in 10.0 mi SSE 6.9 mph - N/A   Clear
8:51 PM 73.9 °F 39.9 °F 29% 29.83 in 10.0 mi ESE 4.6 mph - N/A   Clear
9:51 PM 73.0 °F 36.0 °F 26% 29.82 in 10.0 mi Calm Calm - N/A   Clear
10:51 PM 63.0 °F 44.1 °F 50% 29.83 in 10.0 mi Calm Calm - N/A   Clear
11:51 PM 66.0 °F 43.0 °F 43% 29.81 in 10.0 mi Calm Calm - N/A   Clear